Hourly Weather Barra

Today, 19 June, Saturday

Time Temperature Precipitation Wind Pressure Humidity
00:00 +27°C° 0 mm 5 mps 760 mmHg 76%
01:00 +27°C° 0 mm 5 mps 760 mmHg 77%
02:00 +27°C° 0 mm 5 mps 759 mmHg 79%
03:00 +26°C° 0 mm 4 mps 759 mmHg 79%
04:00 +26°C° 0 mm 4 mps 759 mmHg 80%
05:00 +26°C° 0 mm 4 mps 759 mmHg 81%
06:00 +27°C° 0 mm 4 mps 760 mmHg 76%
07:00 +28°C° 0 mm 4 mps 760 mmHg 70%
08:00 +28°C° 0 mm 5 mps 761 mmHg 65%
09:00 +30°C° 0 mm 5 mps 761 mmHg 57%
10:00 +33°C° 0 mm 5 mps 761 mmHg 49%
11:00 +34°C° 0 mm 5 mps 760 mmHg 41%
12:00 +34°C° 0 mm 5 mps 760 mmHg 42%
13:00 +34°C° 0 mm 5 mps 760 mmHg 42%
14:00 +34°C° 0 mm 6 mps 759 mmHg 42%
15:00 +33°C° 0 mm 6 mps 759 mmHg 44%
16:00 +33°C° 0 mm 6 mps 759 mmHg 47%
17:00 +32°C° 0 mm 6 mps 759 mmHg 50%
18:00 +30°C° 0 mm 6 mps 759 mmHg 56%
19:00 +29°C° 0 mm 6 mps 760 mmHg 62%
20:00 +28°C° 0 mm 7 mps 760 mmHg 69%
21:00 +27°C° 0 mm 7 mps 760 mmHg 71%
22:00 +27°C° 0 mm 7 mps 760 mmHg 73%
23:00 +27°C° 0 mm 7 mps 760 mmHg 76%

Tomorrow, 20 June, Sunday

Time Temperature Precipitation Wind Pressure Humidity
00:00 +27°C° 0 mm 7 mps 760 mmHg 77%
01:00 +26°C° 0 mm 6 mps 759 mmHg 78%
02:00 +26°C° 0 mm 6 mps 759 mmHg 79%
03:00 +26°C° 0 mm 5 mps 759 mmHg 79%
04:00 +26°C° 0 mm 5 mps 759 mmHg 80%
05:00 +25°C° 0 mm 4 mps 760 mmHg 80%
06:00 +26°C° 0 mm 4 mps 760 mmHg 73%
07:00 +27°C° 0 mm 4 mps 760 mmHg 66%
08:00 +28°C° 0 mm 4 mps 760 mmHg 59%
09:00 +30°C° 0 mm 4 mps 760 mmHg 52%
10:00 +33°C° 0 mm 5 mps 760 mmHg 45%
11:00 +34°C° 0 mm 5 mps 760 mmHg 38%
12:00 +34°C° 0 mm 5 mps 759 mmHg 39%
13:00 +35°C° 0 mm 6 mps 759 mmHg 40%
14:00 +35°C° 0 mm 6 mps 758 mmHg 41%
15:00 +33°C° 0 mm 6 mps 758 mmHg 47%
16:00 +32°C° 0 mm 7 mps 758 mmHg 53%
17:00 +30°C° 0 mm 7 mps 758 mmHg 59%
18:00 +29°C° 0 mm 7 mps 758 mmHg 62%
19:00 +28°C° 0 mm 7 mps 758 mmHg 66%
20:00 +27°C° 0 mm 6 mps 759 mmHg 70%
21:00 +27°C° 0 mm 6 mps 759 mmHg 70%
22:00 +27°C° 0 mm 6 mps 759 mmHg 71%
23:00 +27°C° 0 mm 6 mps 759 mmHg 71%

Day after tomorrow, 21 June, Monday

Time Temperature Precipitation Wind Pressure Humidity
00:00 +27°C° 0 mm 5 mps 759 mmHg 73%
01:00 +26°C° 0 mm 4 mps 759 mmHg 74%
02:00 +26°C° 0 mm 4 mps 758 mmHg 75%
03:00 +26°C° 0 mm 3 mps 759 mmHg 76%
04:00 +26°C° 0 mm 3 mps 759 mmHg 77%
05:00 +25°C° 0 mm 3 mps 759 mmHg 78%
06:00 +26°C° 0 mm 3 mps 759 mmHg 73%
07:00 +27°C° 0 mm 2 mps 760 mmHg 68%
08:00 +28°C° 0 mm 2 mps 760 mmHg 63%
09:00 +30°C° 0 mm 2 mps 760 mmHg 56%
10:00 +31°C° 0 mm 3 mps 760 mmHg 49%
11:00 +34°C° 0 mm 3 mps 760 mmHg 42%
12:00 +33°C° 0 mm 4 mps 760 mmHg 44%
13:00 +33°C° 0 mm 4 mps 759 mmHg 46%
14:00 +33°C° 0 mm 5 mps 759 mmHg 48%
15:00 +32°C° 0 mm 5 mps 759 mmHg 51%
16:00 +30°C° 0 mm 5 mps 758 mmHg 53%
17:00 +30°C° 0 mm 5 mps 758 mmHg 56%
18:00 +29°C° 0 mm 5 mps 759 mmHg 61%
19:00 +28°C° 0 mm 5 mps 759 mmHg 65%
20:00 +27°C° 0 mm 5 mps 759 mmHg 69%
21:00 +27°C° 0 mm 5 mps 759 mmHg 71%
22:00 +27°C° 0 mm 5 mps 760 mmHg 72%
23:00 +27°C° 0 mm 5 mps 760 mmHg 74%

22 June, Tuesday

Time Temperature Precipitation Wind Pressure Humidity
00:00 +27°C° 0 mm 4 mps 760 mmHg 75%
01:00 +26°C° 0 mm 4 mps 759 mmHg 76%
02:00 +26°C° 0 mm 4 mps 759 mmHg 77%
03:00 +26°C° 0 mm 3 mps 759 mmHg 78%
04:00 +26°C° 0 mm 3 mps 759 mmHg 79%
05:00 +26°C° 0 mm 2 mps 759 mmHg 80%
06:00 +26°C° 0 mm 2 mps 759 mmHg 76%
07:00 +27°C° 0 mm 3 mps 760 mmHg 71%
08:00 +28°C° 0 mm 3 mps 760 mmHg 66%
09:00 +30°C° 0 mm 3 mps 760 mmHg 59%
10:00 +31°C° 0 mm 3 mps 760 mmHg 52%
11:00 +34°C° 0 mm 4 mps 759 mmHg 45%
12:00 +34°C° 0 mm 4 mps 759 mmHg 45%
13:00 +34°C° 0 mm 4 mps 759 mmHg 45%
14:00 +34°C° 0 mm 5 mps 758 mmHg 44%
15:00 +33°C° 0 mm 5 mps 758 mmHg 48%
16:00 +32°C° 0 mm 5 mps 758 mmHg 51%
17:00 +30°C° 0 mm 6 mps 758 mmHg 55%
18:00 +29°C° 0 mm 6 mps 759 mmHg 60%
19:00 +28°C° 0 mm 6 mps 759 mmHg 66%
20:00 +27°C° 0 mm 6 mps 759 mmHg 71%
21:00 +27°C° 0 mm 6 mps 759 mmHg 72%
22:00 +27°C° 0 mm 6 mps 759 mmHg 73%
23:00 +27°C° 0 mm 6 mps 759 mmHg 74%

23 June, Wednesday

Time Temperature Precipitation Wind Pressure Humidity
00:00 +27°C° 0 mm 5 mps 759 mmHg 74%
01:00 +26°C° 0 mm 5 mps 758 mmHg 75%
02:00 +26°C° 0 mm 5 mps 758 mmHg 76%
03:00 +26°C° 0 mm 5 mps 758 mmHg 77%
04:00 +26°C° 0 mm 4 mps 758 mmHg 78%
05:00 +26°C° 0 mm 4 mps 758 mmHg 79%
06:00 +26°C° 0 mm 5 mps 758 mmHg 75%
07:00 +27°C° 0 mm 5 mps 758 mmHg 71%
08:00 +28°C° 0 mm 5 mps 758 mmHg 66%
09:00 +30°C° 0 mm 5 mps 758 mmHg 59%
10:00 +32°C° 0 mm 5 mps 758 mmHg 52%
11:00 +34°C° 0 mm 5 mps 758 mmHg 45%
12:00 +34°C° 0 mm 5 mps 758 mmHg 44%
13:00 +35°C° 0 mm 5 mps 757 mmHg 43%
14:00 +35°C° 0 mm 6 mps 757 mmHg 42%
15:00 +34°C° 0 mm 6 mps 756 mmHg 47%
16:00 +33°C° 0 mm 7 mps 756 mmHg 53%
17:00 +32°C° 0 mm 7 mps 756 mmHg 58%
18:00 +30°C° 0 mm 7 mps 756 mmHg 62%
19:00 +29°C° 0 mm 7 mps 757 mmHg 67%
20:00 +28°C° 0 mm 7 mps 757 mmHg 72%
21:00 +27°C° 0 mm 7 mps 757 mmHg 73%
22:00 +27°C° 0 mm 6 mps 757 mmHg 74%
23:00 +27°C° 0 mm 6 mps 758 mmHg 76%

24 June, Thursday

Time Temperature Precipitation Wind Pressure Humidity
00:00 +27°C° 0 mm 6 mps 757 mmHg 77%
01:00 +26°C° 0 mm 5 mps 757 mmHg 78%
02:00 +26°C° 0 mm 5 mps 757 mmHg 79%
03:00 +26°C° 0 mm 4 mps 757 mmHg 80%
04:00 +26°C° 0 mm 4 mps 757 mmHg 81%
05:00 +26°C° 0 mm 4 mps 757 mmHg 82%
06:00 +26°C° 0 mm 4 mps 757 mmHg 77%
07:00 +27°C° 0 mm 4 mps 758 mmHg 71%
08:00 +28°C° 0 mm 3 mps 758 mmHg 66%
09:00 +30°C° 0 mm 4 mps 758 mmHg 60%
10:00 +32°C° 0 mm 4 mps 758 mmHg 54%
11:00 +33°C° 0 mm 4 mps 758 mmHg 49%
12:00 +34°C° 0 mm 5 mps 758 mmHg 48%
13:00 +34°C° 0 mm 5 mps 757 mmHg 47%
14:00 +34°C° 0 mm 5 mps 757 mmHg 47%
15:00 +33°C° 0 mm 5 mps 757 mmHg 50%
16:00 +32°C° 0 mm 5 mps 757 mmHg 54%
17:00 +30°C° 0 mm 5 mps 756 mmHg 57%
18:00 +29°C° 0 mm 5 mps 757 mmHg 62%
19:00 +28°C° 0 mm 5 mps 757 mmHg 66%
20:00 +27°C° 0 mm 5 mps 757 mmHg 71%
21:00 +27°C° 0 mm 5 mps 758 mmHg 71%
22:00 +27°C° 0 mm 4 mps 758 mmHg 72%
23:00 +27°C° 0 mm 4 mps 759 mmHg 73%
Show more